K9BM Weather Reports


Display with metric or nautical units.
time (UTC)temp
F
wind
direction
speed
MPH
gust
MPH
rain 1hr
in
rain 24hr
in
rain mn
in
humidity
%
barometer
mb
20260905165004 66 77 9.0 16.0 0.00 0.00 0.00 40 1010.7
20260905164505 66 58 9.0 16.0 0.00 0.00 0.00 40 1010.5
20260905164004 65 55 7.0 15.0 0.00 0.00 0.00 42 1010.6
20260905163505 65 56 8.0 15.0 0.00 0.00 0.00 41 1010.6
20260905163005 65 52 6.0 15.0 0.00 0.00 0.00 42 1010.5
20260905162504 65 73 6.0 13.0 0.00 0.00 0.00 42 1010.5
20260905162004 64 36 3.0 13.0 0.00 0.00 0.00 43 1010.6
20260905160004 63 62 5.0 12.0 0.00 0.00 0.00 44 1010.5
20260905155505 63 43 5.0 12.0 0.00 0.00 0.00 46 1010.5
20260905154504 62 25 3.0 10.0 0.00 0.00 0.00 48 1010.5
20260905154005 62 42 5.0 10.0 0.00 0.00 0.00 47 1010.5
20260905153005 61 48 5.0 12.0 0.00 0.00 0.00 48 1010.6
20260905152504 61 32 7.0 12.0 0.00 0.00 0.00 49 1010.7
20260905152005 61 36 6.0 12.0 0.00 0.00 0.00 49 1010.6
20260905151005 61 37 6.0 12.0 0.00 0.00 0.00 49 1010.7
20260905145504 60 18 7.0 13.0 0.00 0.00 0.00 50 1010.6
20260905145004 60 29 7.0 12.0 0.00 0.00 0.00 50 1010.7
20260905144005 59 27 6.0 13.0 0.00 0.00 0.00 52 1010.6
20260905143504 58 36 6.0 10.0 0.00 0.00 0.00 52 1010.6
20260905143005 58 30 7.0 13.0 0.00 0.00 0.00 52 1010.5
20260905142504 58 24 7.0 13.0 0.00 0.00 0.00 52 1010.5
20260905142005 58 49 5.0 12.0 0.00 0.00 0.00 52 1010.5
20260905141504 57 36 6.0 10.0 0.00 0.00 0.00 53 1010.5
20260905140005 56 23 5.0 12.0 0.00 0.00 0.00 55 1010.3
20260905135508 56 17 5.0 9.0 0.00 0.00 0.00 56 1010.3
20260905135004 56 15 4.0 9.0 0.00 0.00 0.00 56 1010.3
20260905134004 55 23 5.0 10.0 0.00 0.00 0.00 56 1010.0
20260905133005 55 15 6.0 10.0 0.00 0.00 0.00 56 1010.0
20260905132504 55 29 5.0 9.0 0.00 0.00 0.00 57 1009.9
20260905131005 53 45 5.0 8.0 0.00 0.00 0.00 59 1009.6
20260905130004 53 25 5.0 9.0 0.00 0.00 0.00 58 1009.3
20260905125005 53 33 5.0 9.0 0.00 0.00 0.00 58 1009.2
20260905124505 54 37 5.0 10.0 0.00 0.00 0.00 58 1009.1
20260905124005 53 46 5.0 10.0 0.00 0.00 0.00 58 1009.1
20260905123504 53 57 4.0 8.0 0.00 0.00 0.00 58 1009.0
20260905123004 53 34 5.0 8.0 0.00 0.00 0.00 58 1008.8
20260905122504 54 31 4.0 9.0 0.00 0.00 0.00 57 1008.8
20260905121504 54 36 5.0 10.0 0.00 0.00 0.00 56 1008.6
20260905121005 55 33 5.0 10.0 0.00 0.00 0.00 55 1008.5
20260905120005 55 31 6.0 12.0 0.00 0.00 0.00 55 1008.3
20260905115004 55 29 5.0 12.0 0.00 0.00 0.00 54 1008.0
20260905114504 55 29 6.0 12.0 0.00 0.00 0.00 54 1007.9
20260905114005 55 29 7.0 12.0 0.00 0.00 0.00 54 1008.0
20260905113505 55 48 5.0 10.0 0.00 0.00 0.00 54 1008.0
20260905113004 55 31 5.0 10.0 0.00 0.00 0.00 54 1007.9
20260905112504 55 42 3.0 9.0 0.00 0.00 0.00 54 1007.9
20260905112005 55 44 4.0 6.0 0.00 0.00 0.00 54 1007.8
20260905111004 54 41 3.0 6.0 0.00 0.00 0.00 56 1007.4
20260905105505 55 29 2.0 6.0 0.00 0.00 0.00 55 1007.2
20260905104505 55 48 5.0 9.0 0.00 0.00 0.00 55 1007.0
20260905104005 55 27 5.0 9.0 0.00 0.00 0.00 54 1007.1
20260905103505 55 53 5.0 9.0 0.00 0.00 0.00 54 1007.0
20260905102505 56 43 6.0 10.0 0.00 0.00 0.00 53 1007.0
20260905102005 56 59 5.0 12.0 0.00 0.00 0.00 53 1007.1
20260905101504 56 66 5.0 12.0 0.00 0.00 0.00 53 1007.0
20260905101004 56 53 6.0 10.0 0.00 0.00 0.00 52 1006.8
20260905095505 57 78 5.0 12.0 0.00 0.00 0.00 51 1007.1
20260905094504 57 64 6.0 10.0 0.00 0.00 0.00 52 1007.1
20260905093505 57 98 6.0 8.0 0.00 0.00 0.00 52 1007.3
20260905093004 57 86 4.0 9.0 0.00 0.00 0.00 52 1007.3
20260905092504 57 78 6.0 9.0 0.00 0.00 0.00 53 1007.1
20260905092004 57 84 6.0 9.0 0.00 0.00 0.00 52 1007.1
20260905091504 57 76 6.0 8.0 0.00 0.00 0.00 52 1007.0
20260905091004 56 66 5.0 6.0 0.00 0.00 0.00 53 1006.9
20260905090005 57 53 3.0 9.0 0.00 0.00 0.00 52 1006.8
20260905085504 57 77 7.0 9.0 0.00 0.00 0.00 52 1006.8
20260905085004 57 84 7.0 9.0 0.00 0.00 0.00 52 1006.8
20260905084504 58 86 3.0 10.0 0.00 0.00 0.00 51 1006.8
20260905084005 58 56 6.0 12.0 0.00 0.00 0.00 50 1006.5
20260905083504 58 48 6.0 12.0 0.00 0.00 0.00 50 1006.4
20260905083004 58 58 7.0 12.0 0.00 0.00 0.00 50 1006.4
20260905082504 58 38 6.0 10.0 0.00 0.00 0.00 50 1006.2
20260905081505 59 51 5.0 9.0 0.00 0.00 0.00 49 1006.6
20260905081004 59 40 6.0 9.0 0.00 0.00 0.00 49 1006.5
20260905080005 59 29 6.0 9.0 0.00 0.00 0.00 49 1006.6
20260905075505 59 37 5.0 8.0 0.00 0.00 0.00 49 1006.7
20260905075004 59 24 3.0 10.0 0.00 0.00 0.00 49 1006.7
20260905074004 59 26 5.0 10.0 0.00 0.00 0.00 49 1006.6
20260905073505 59 36 5.0 7.0 0.00 0.00 0.00 49 1006.5
20260905073005 60 30 3.0 8.0 0.00 0.00 0.00 48 1006.5
20260905072504 60 26 3.0 8.0 0.00 0.00 0.00 48 1006.4
20260905071004 61 33 3.0 6.0 0.00 0.00 0.00 47 1006.4
20260905070004 62 27 3.0 6.0 0.00 0.00 0.00 46 1006.5
20260905065004 62 17 5.0 9.0 0.00 0.00 0.00 45 1006.5
20260905064504 62 26 3.0 9.0 0.00 0.00 0.00 45 1006.6
20260905064004 62 26 5.0 8.0 0.00 0.00 0.00 45 1006.7
20260905063504 62 20 3.0 8.0 0.00 0.00 0.00 46 1006.7
20260905063004 62 16 1.0 3.0 0.00 0.00 0.00 46 1006.8
20260905062504 62 15 2.0 3.0 0.00 0.00 0.00 45 1006.7
20260905062004 63 17 2.0 3.0 0.00 0.00 0.00 45 1006.5
20260905061504 63 31 1.0 7.0 0.00 0.00 0.00 45 1006.6
20260905061004 63 19 3.0 7.0 0.00 0.00 0.00 44 1006.4
20260905060004 63 21 2.0 5.0 0.00 0.00 0.00 44 1006.6
20260905055004 64 19 3.0 8.0 0.00 0.00 0.00 43 1006.5
20260905054504 64 28 4.0 10.0 0.00 0.00 0.00 43 1006.5
20260905054005 64 35 5.0 10.0 0.00 0.00 0.00 43 1006.5
20260905053504 64 17 3.0 12.0 0.00 0.00 0.00 43 1006.4
20260905053004 64 32 6.0 12.0 0.00 0.00 0.00 42 1006.3
20260905052504 64 24 5.0 10.0 0.00 0.00 0.00 42 1006.1
20260905052004 64 32 4.0 10.0 0.00 0.00 0.00 42 1006.0
20260905051504 64 26 2.0 8.0 0.00 0.00 0.00 42 1006.1
20260905051004 64 31 2.0 8.0 0.00 0.00 0.00 42 1006.0
20260905050004 65 67 3.0 6.0 0.00 0.00 0.00 41 1006.1
20260905045504 65 8 2.0 15.0 0.00 0.00 0.00 41 1005.9
20260905045005 65 338 4.0 15.0 0.00 0.00 0.00 41 1005.8
20260905044504 65 331 6.0 15.0 0.00 0.00 0.00 41 1005.7
20260905044004 65 346 3.0 8.0 0.00 0.00 0.00 41 1005.6
20260905043504 65 2 3.0 10.0 0.00 0.00 0.00 41 1005.6
20260905043004 65 10 5.0 10.0 0.00 0.00 0.00 41 1005.6
20260905042504 65 333 6.0 10.0 0.00 0.00 0.00 41 1005.5
20260905042004 65 343 6.0 9.0 0.00 0.00 0.00 41 1005.4
20260905041504 65 0 5.0 10.0 0.00 0.00 0.00 40 1005.5
20260905041004 66 25 3.0 12.0 0.00 0.00 0.00 40 1005.5
20260905040004 66 4 8.0 16.0 0.00 0.00 0.00 39 1005.5
20260905035004 67 13 9.0 16.0 0.00 0.00 0.00 38 1005.4
20260905034004 68 27 3.0 8.0 0.00 0.00 0.00 34 1005.1
20260905033004 68 310 3.0 6.0 0.00 0.00 0.00 32 1004.6
20260905031504 70 273 3.0 6.0 0.00 0.00 0.00 28 1004.4
20260905030004 71 253 2.0 8.0 0.00 0.00 0.00 25 1004.3
20260905025504 72 249 3.0 8.0 0.00 0.00 0.00 25 1004.1
20260905025004 72 253 5.0 9.0 0.00 0.00 0.00 24 1004.1
20260905024504 72 254 6.0 12.0 0.00 0.00 0.00 24 1003.9
20260905024004 73 253 6.0 12.0 0.00 0.00 0.00 24 1003.8
20260905023505 73 258 8.0 12.0 0.00 0.00 0.00 23 1003.7
20260905023004 73 264 9.0 12.0 0.00 0.00 0.00 23 1003.6
20260905022504 73 273 9.0 12.0 0.00 0.00 0.00 23 1003.4
20260905022004 74 273 9.0 12.0 0.00 0.00 0.00 23 1003.4
20260905021504 74 272 9.0 12.0 0.00 0.00 0.00 23 1003.3
20260905021005 74 272 8.0 12.0 0.00 0.00 0.00 23 1003.4
20260905020004 75 272 7.0 12.0 0.00 0.00 0.00 23 1003.2
20260905015004 75 271 7.0 13.0 0.00 0.00 0.00 22 1003.1
20260905014504 76 274 7.0 13.0 0.00 0.00 0.00 22 1003.0
20260905014004 76 275 9.0 13.0 0.00 0.00 0.00 21 1003.0
20260905013504 77 275 7.0 12.0 0.00 0.00 0.00 21 1002.9
20260905013004 77 288 7.0 13.0 0.00 0.00 0.00 21 1002.9
20260905012504 77 279 9.0 13.0 0.00 0.00 0.00 21 1002.8
20260905012004 78 281 9.0 13.0 0.00 0.00 0.00 20 1002.7
20260905011503 78 290 9.0 13.0 0.00 0.00 0.00 20 1002.8
20260905011004 78 278 7.0 15.0 0.00 0.00 0.00 20 1002.7
20260905005504 79 279 10.0 17.0 0.00 0.00 0.00 20 1002.4
20260905005004 79 287 12.0 17.0 0.00 0.00 0.00 19 1002.4
20260905004504 80 284 13.0 16.0 0.00 0.00 0.00 20 1002.4
20260905003004 80 276 13.0 21.0 0.00 0.00 0.00 19 1002.2
20260905002504 80 282 13.0 21.0 0.00 0.00 0.00 20 1002.2
20260905001504 80 274 14.0 23.0 0.00 0.00 0.00 19 1001.9
20260904235504 81 274 17.0 26.0 0.00 0.00 0.00 20 1001.6
20260904235004 81 283 19.0 25.0 0.00 0.00 0.00 19 1001.7
20260904234504 81 270 17.0 24.0 0.00 0.00 0.00 19 1002.0
20260904234004 81 270 16.0 24.0 0.00 0.00 0.00 19 1002.0
20260904233504 81 255 16.0 23.0 0.00 0.00 0.00 19 1002.2
20260904233004 82 267 16.0 23.0 0.00 0.00 0.00 18 1002.2
20260904232504 82 267 14.0 20.0 0.00 0.00 0.00 18 1002.3
20260904232004 82 237 7.0 23.0 0.00 0.00 0.00 17 1002.2
20260904231504 83 249 14.0 23.0 0.00 0.00 0.00 17 1002.3
20260904231004 83 271 13.0 23.0 0.00 0.00 0.00 18 1002.3
20260904230005 82 247 10.0 20.0 0.00 0.00 0.00 18 1002.4
20260904225504 82 286 10.0 20.0 0.00 0.00 0.00 19 1002.2
20260904225004 83 260 14.0 22.0 0.00 0.00 0.00 18 1002.3
20260904224504 83 238 10.0 23.0 0.00 0.00 0.00 18 1002.2
20260904223504 83 265 10.0 20.0 0.00 0.00 0.00 18 1002.1
20260904223006 83 268 13.0 20.0 0.00 0.00 0.00 18 1002.1
20260904222506 83 244 12.0 20.0 0.00 0.00 0.00 17 1002.1
20260904222006 83 253 11.0 22.0 0.00 0.00 0.00 18 1002.0
20260904221505 83 243 15.0 22.0 0.00 0.00 0.00 18 1002.0
20260904221006 84 260 12.0 21.0 0.00 0.00 0.00 18 1002.0
20260904220006 83 264 13.0 23.0 0.00 0.00 0.00 18 1001.9
20260904215505 83 244 15.0 24.0 0.00 0.00 0.00 17 1001.9
20260904215006 83 241 15.0 26.0 0.00 0.00 0.00 17 1002.0
20260904214005 83 253 13.0 23.0 0.00 0.00 0.00 18 1001.8
20260904213506 83 250 16.0 23.0 0.00 0.00 0.00 18 1001.9
20260904213006 82 234 7.0 21.0 0.00 0.00 0.00 18 1001.8
20260904212506 83 264 14.0 21.0 0.00 0.00 0.00 18 1001.7
20260904211506 83 198 7.0 20.0 0.00 0.00 0.00 17 1001.8
20260904211006 83 228 9.0 20.0 0.00 0.00 0.00 17 1001.9
20260904210005 83 238 11.0 20.0 0.00 0.00 0.00 17 1001.7
20260904205506 83 245 13.0 24.0 0.00 0.00 0.00 18 1001.7
20260904205006 83 244 10.0 24.0 0.00 0.00 0.00 17 1001.6
20260904204506 84 241 9.0 15.0 0.00 0.00 0.00 16 1001.7
20260904204006 84 233 8.0 15.0 0.00 0.00 0.00 16 1001.7
20260904203506 85 163 8.0 20.0 0.00 0.00 0.00 15 1001.5
20260904203006 86 206 10.0 29.0 0.00 0.00 0.00 15 1001.6
20260904202505 86 185 12.0 29.0 0.00 0.00 0.00 15 1001.6
20260904202005 85 176 18.0 29.0 0.00 0.00 0.00 16 1001.5
20260904201506 83 254 12.0 21.0 0.00 0.00 0.00 17 1001.4
20260904201005 83 242 13.0 22.0 0.00 0.00 0.00 17 1001.5
20260904200006 83 247 14.0 22.0 0.00 0.00 0.00 16 1001.5
20260904195506 83 260 13.0 20.0 0.00 0.00 0.00 17 1001.4
20260904195005 82 259 12.0 23.0 0.00 0.00 0.00 17 1001.5
20260904194506 82 252 16.0 23.0 0.00 0.00 0.00 17 1001.5
20260904194006 81 246 13.0 21.0 0.00 0.00 0.00 17 1001.4
20260904193506 81 256 14.0 21.0 0.00 0.00 0.00 17 1001.5
20260904193006 80 265 13.0 20.0 0.00 0.00 0.00 18 1001.6
20260904192506 81 257 14.0 20.0 0.00 0.00 0.00 18 1001.6
20260904192006 81 274 12.0 22.0 0.00 0.00 0.00 18 1001.5
20260904191505 82 270 12.0 22.0 0.00 0.00 0.00 18 1001.5
20260904191006 81 252 10.0 22.0 0.00 0.00 0.00 19 1001.5
20260904190006 79 293 5.0 13.0 0.00 0.00 0.00 20 1001.7
20260904185005 80 270 7.0 13.0 0.00 0.00 0.00 20 1001.7
20260904184006 79 294 1.0 8.0 0.00 0.00 0.00 20 1001.6
20260904183506 78 306 5.0 12.0 0.00 0.00 0.00 22 1001.7
20260904183005 77 305 6.0 12.0 0.00 0.00 0.00 22 1001.8
20260904182006 78 312 7.0 14.0 0.00 0.00 0.00 22 1001.7
20260904181505 78 301 7.0 15.0 0.00 0.00 0.00 23 1001.7
20260904181006 77 305 10.0 15.0 0.00 0.00 0.00 22 1001.7
20260904180005 77 278 6.0 16.0 0.00 0.00 0.00 22 1001.7
20260904175506 77 310 6.0 13.0 0.00 0.00 0.00 23 1001.9
20260904174505 76 303 5.0 12.0 0.00 0.00 0.00 27 1001.9
20260904174006 76 310 6.0 12.0 0.00 0.00 0.00 26 1001.9
20260904173506 76 275 8.0 12.0 0.00 0.00 0.00 25 1001.8
20260904173006 75 285 4.0 10.0 0.00 0.00 0.00 27 1001.8
20260904172006 75 307 6.0 12.0 0.00 0.00 0.00 26 1001.7
20260904171006 75 299 5.0 8.0 0.00 0.00 0.00 24 1001.6
20260904170006 73 10 0.0 3.0 0.00 0.00 0.00 24 1001.5
20260904165505 72 11 1.0 3.0 0.00 0.00 0.00 27 1001.5